Temp
-10 -10 -10 -10 -10 -10 -9 -9 -8 -8 -8 -8 -8 -8 -8 -8 -8 -8 -7 -7 -7 -7 -7 -7 -7 -7 -6 -6 -6 -6 -6 -6 -6 -6 -6 -6 -6 -7
-11 -10 -10 -10 -10 -10 -10 -9 -8 -9 -8 -8 -8 -8 -8 -8 -8 -8 -8 -8 -7 -7 -7 -7 -7 -6 -6 -6 -6 -6 -6 -6 -6 -6 -6 -6 -6 -6
-12 -11 -11 -11 -10 -10 -10 -10 -9 -9 -8 -9 -8 -8 -8 -8 -8 -8 -8 -8 -8 -7 -7 -7 -7 -6 -6 -6 -6 -6 -6 -6 -6 -6 -6 -6 -6 -6
-12 -11 -11 -11 -11 -10 -10 -10 -10 -9 -9 -8 -9 -8 -8 -8 -8 -7 -8 -8 -7 -7 -7 -7 -7 -7 -6 -6 -6 -6 -6 -6 -6 -6 -6 -6 -6 -6
-12 -12 -12 -11 -11 -11 -10 -9 -9 -9 -9 -8 -9 -9 -8 -8 -7 -7 -8 -7 -7 -7 -7 -7 -7 -7 -7 -6 -6 -6 -6 -6 -6 -6 -6 -6 -6 -6
-12 -12 -12 -12 -11 -11 -11 -10 -9 -9 -9 -8 -8 -9 -8 -8 -7 -7 -7 -8 -8 -8 -7 -7 -7 -7 -7 -7 -6 -7 -6 -6 -6 -6 -6 -6 -6 -6
-13 -12 -12 -12 -12 -11 -11 -10 -10 -9 -9 -8 -8 -8 -8 -7 -7 -7 -7 -8 -8 -7 -7 -7 -7 -8 -7 -7 -7 -7 -7 -6 -6 -6 -6 -6 -6 -6
-13 -12 -12 -12 -12 -11 -11 -11 -10 -10 -9 -9 -8 -8 -8 -8 -8 -7 -7 -8 -8 -8 -7 -7 -7 -7 -8 -8 -8 -8 -7 -7 -6 -6 -6 -6 -6 -6
-13 -13 -12 -11 -12 -11 -11 -10 -10 -10 -9 -9 -8 -8 -8 -8 -8 -7 -7 -7 -8 -8 -7 -7 -7 -7 -8 -8 -8 -8 -8 -7 -7 -6 -6 -6 -6 -6
-13 -13 -12 -11 -11 -11 -10 -10 -10 -10 -9 -9 -9 -9 -8 -8 -8 -7 -7 -7 -8 -8 -7 -7 -7 -8 -8 -8 -8 -8 -8 -8 -7 -7 -6 -6 -6 -6
-14 -14 -13 -12 -11 -11 -11 -10 -10 -10 -10 -9 -9 -8 -8 -9 -8 -7 -7 -7 -7 -7 -7 -8 -8 -8 -8 -7 -8 -8 -8 -8 -7 -7 -7 -6 -6 -6
-14 -14 -13 -12 -11 -11 -10 -10 -9 -9 -9 -9 -9 -8 -8 -8 -8 -7 -8 -7 -7 -7 -7 -7 -8 -7 -8 -8 -8 -8 -7 -7 -7 -7 -7 -6 -6 -7
-14 -14 -13 -12 -11 -10 -10 -10 -9 -9 -9 -8 -8 -8 -8 -8 -8 -8 -8 -8 -7 -7 -7 -7 -8 -7 -8 -8 -8 -7 -7 -7 -7 -7 -7 -7 -7 -7
-16 -15 -14 -12 -12 -11 -10 -9 -8 -8 -7 -8 -8 -8 -8 -8 -8 -8 -8 -8 -8 -8 -7 -7 -8 -8 -8 -7 -8 -8 -7 -7 -7 -7 -7 -7 -7 -7
-16 -16 -13 -13 -12 -11 -10 -10 -9 -8 -8 -8 -8 -8 -8 -8 -9 -8 -8 -8 -8 -7 -7 -7 -8 -8 -8 -7 -7 -7 -7 -7 -7 -7 -7 -7 -7 -7
-16 -17 -15 -13 -12 -12 -11 -10 -9 -9 -9 -9 -9 -9 -9 -9 -9 -9 -9 -8 -8 -8 -8 -8 -8 -8 -8 -8 -8 -7 -7 -7 -7 -7 -7 -7 -7 -7
-15 -17 -16 -15 -13 -12 -12 -11 -10 -10 -10 -9 -9 -9 -9 -9 -9 -9 -9 -9 -8 -8 -8 -8 -7 -7 -8 -8 -8 -8 -8 -8 -8 -8 -8 -8 -7 -8
-15 -15 -15 -15 -15 -13 -13 -12 -12 -11 -10 -9 -9 -9 -9 -9 -9 -9 -9 -9 -9 -9 -8 -8 -8 -8 -8 -8 -8 -8 -8 -8 -8 -8 -8 -8 -8 -7
-15 -15 -15 -15 -15 -15 -14 -13 -13 -12 -11 -10 -10 -10 -10 -9 -9 -9 -10 -10 -9 -9 -8 -9 -9 -9 -9 -8 -8 -8 -8 -8 -8 -8 -8 -8 -8 -8
-15 -15 -14 -14 -14 -14 -15 -15 -14 -13 -12 -12 -11 -11 -10 -10 -9 -9 -9 -9 -9 -9 -9 -9 -9 -9 -9 -8 -8 -8 -8 -8 -8 -8 -8 -9 -9 -9
-15 -15 -14 -14 -14 -14 -14 -14 -14 -15 -15 -13 -12 -12 -11 -11 -11 -11 -9 -9 -9 -9 -9 -9 -9 -9 -9 -9 -9 -9 -9 -9 -9 -9 -9 -9 -9 -10
-15 -15 -15 -14 -14 -14 -14 -14 -14 -14 -14 -14 -14 -15 -14 -12 -11 -11 -11 -11 -11 -11 -10 -10 -10 -10 -10 -10 -10 -9 -9 -9 -9 -9 -9 -10 -9 -9
-15 -15 -15 -15 -15 -15 -14 -14 -14 -14 -14 -14 -13 -13 -13 -13 -14 -14 -12 -12 -11 -11 -11 -11 -11 -10 -10 -10 -10 -10 -10 -10 -10 -10 -10 -10 -10 -10
Height
5791 5790 5790 5792 5792 5795 5797 5801 5807 5811 5817 5823 5827 5829 5832 5835 5839 5843 5846 5852 5857 5863 5868 5873 5876 5880 5883 5885 5888 5890 5892 5893 5894 5895 5896 5897 5898 5899
5777 5776 5777 5778 5780 5782 5786 5789 5792 5797 5804 5811 5815 5819 5822 5826 5829 5833 5838 5843 5848 5854 5859 5864 5868 5871 5874 5877 5879 5881 5883 5885 5886 5888 5888 5889 5890 5891
5765 5765 5765 5765 5767 5769 5773 5776 5780 5784 5791 5800 5802 5807 5811 5816 5819 5824 5829 5834 5839 5844 5849 5854 5858 5862 5866 5868 5870 5873 5874 5876 5878 5879 5879 5881 5882 5883
5753 5751 5750 5750 5753 5756 5759 5764 5769 5773 5780 5787 5791 5794 5801 5806 5810 5816 5820 5825 5831 5835 5839 5844 5849 5853 5857 5860 5861 5863 5866 5867 5868 5870 5871 5873 5874 5875
5740 5737 5736 5737 5739 5742 5745 5750 5756 5761 5768 5774 5780 5783 5789 5795 5801 5807 5813 5816 5820 5825 5830 5834 5839 5843 5848 5850 5852 5854 5855 5857 5859 5862 5863 5864 5866 5868
5729 5724 5724 5724 5725 5727 5731 5737 5742 5748 5755 5761 5767 5772 5778 5785 5791 5797 5804 5807 5810 5814 5819 5825 5830 5833 5837 5841 5843 5844 5846 5849 5851 5853 5854 5856 5858 5859
5717 5713 5711 5711 5712 5716 5720 5725 5730 5736 5743 5750 5756 5761 5768 5774 5781 5790 5794 5799 5801 5805 5810 5815 5820 5824 5828 5831 5834 5835 5837 5839 5841 5844 5846 5848 5849 5850
5708 5702 5700 5701 5702 5704 5708 5713 5718 5724 5731 5737 5744 5751 5759 5764 5770 5776 5783 5788 5794 5798 5802 5807 5810 5814 5818 5822 5825 5827 5829 5831 5832 5835 5838 5840 5841 5842
5699 5693 5691 5690 5691 5694 5698 5702 5708 5714 5720 5726 5733 5741 5747 5753 5760 5765 5771 5779 5787 5789 5793 5797 5800 5806 5809 5812 5816 5819 5821 5823 5824 5826 5829 5832 5834 5835
5692 5686 5681 5681 5681 5683 5688 5692 5697 5703 5709 5715 5724 5731 5737 5743 5748 5754 5759 5766 5773 5774 5784 5789 5793 5797 5799 5803 5808 5810 5813 5815 5816 5818 5821 5824 5826 5828
5685 5678 5673 5673 5673 5675 5678 5682 5686 5693 5699 5705 5712 5718 5724 5731 5736 5740 5746 5754 5762 5769 5774 5782 5785 5789 5792 5795 5799 5801 5805 5808 5810 5812 5813 5814 5817 5820
5679 5674 5667 5664 5665 5665 5667 5672 5678 5684 5688 5695 5702 5709 5715 5721 5727 5731 5737 5743 5751 5757 5763 5771 5775 5778 5783 5786 5790 5794 5797 5800 5802 5804 5805 5806 5808 5810
5674 5668 5662 5656 5655 5655 5658 5662 5669 5674 5681 5686 5692 5697 5703 5709 5716 5721 5728 5735 5741 5748 5753 5761 5764 5769 5773 5778 5780 5784 5788 5791 5793 5795 5797 5798 5799 5802
5670 5663 5657 5652 5648 5647 5651 5655 5660 5665 5670 5676 5682 5688 5694 5700 5707 5713 5719 5725 5730 5737 5742 5750 5754 5760 5764 5766 5772 5775 5778 5781 5784 5786 5788 5790 5791 5794
5665 5659 5653 5648 5646 5645 5646 5648 5646 5656 5660 5665 5670 5677 5684 5690 5697 5701 5707 5713 5719 5727 5734 5740 5746 5750 5753 5758 5760 5764 5768 5771 5775 5777 5779 5781 5783 5785
5662 5657 5651 5646 5643 5642 5642 5642 5645 5651 5655 5660 5666 5670 5676 5682 5687 5693 5698 5705 5711 5717 5724 5730 5734 5738 5743 5747 5750 5753 5756 5761 5764 5767 5770 5772 5774 5776
5660 5656 5653 5646 5641 5640 5639 5639 5636 5642 5650 5654 5660 5662 5667 5671 5675 5684 5690 5695 5701 5708 5714 5719 5725 5728 5732 5735 5739 5742 5746 5750 5753 5756 5758 5761 5763 5766
5659 5655 5652 5648 5642 5639 5638 5637 5636 5636 5643 5648 5653 5653 5656 5664 5668 5675 5681 5686 5691 5696 5703 5708 5712 5716 5720 5725 5729 5733 5736 5738 5741 5743 5745 5749 5753 5754
5656 5653 5651 5649 5646 5640 5637 5636 5636 5636 5638 5642 5643 5645 5650 5657 5661 5667 5671 5675 5680 5686 5691 5697 5701 5704 5711 5712 5716 5719 5723 5727 5729 5731 5733 5738 5741 5743
5654 5651 5649 5647 5645 5642 5639 5636 5634 5634 5636 5637 5637 5643 5645 5648 5653 5655 5661 5667 5672 5675 5680 5684 5690 5692 5696 5699 5702 5706 5711 5715 5719 5721 5724 5726 5729 5731
5652 5649 5646 5645 5644 5642 5640 5638 5636 5636 5635 5634 5635 5636 5636 5641 5644 5646 5652 5657 5661 5664 5668 5672 5677 5681 5685 5687 5690 5694 5698 5703 5705 5708 5712 5715 5716 5718
5647 5646 5645 5643 5641 5640 5640 5639 5638 5636 5635 5635 5635 5636 5635 5634 5637 5641 5644 5648 5651 5655 5659 5662 5666 5670 5673 5676 5678 5682 5685 5690 5693 5696 5699 5703 5705 5705
5642 5640 5639 5638 5636 5635 5634 5634 5635 5635 5636 5634 5634 5634 5634 5635 5634 5635 5638 5640 5643 5646 5649 5652 5655 5658 5660 5664 5667 5671 5674 5677 5680 5683 5686 5689 5691 5694
Wind_Speed
42 44 45 43 47 45 46 46 47 53 53 52 49 48 44 41 38 42 45 44 46 46 43 41 39 38 37 36 34 33 32 31 29 28 27 27 27 26
40 44 46 45 46 48 46 47 46 46 54 54 50 49 46 45 41 39 44 44 46 46 45 43 41 40 37 33 32 31 31 30 31 32 32 32 30 30
37 43 46 48 48 48 49 49 52 45 51 51 52 51 48 44 45 39 39 45 44 45 43 44 43 41 37 35 34 34 34 34 34 35 35 33 32 30
37 39 45 48 48 49 50 50 49 47 49 51 52 52 50 47 47 40 38 41 45 47 45 44 44 43 43 42 39 38 38 37 37 35 34 31 31 29
35 35 40 46 48 49 50 50 50 49 48 51 50 52 50 49 47 44 39 39 41 46 48 46 44 42 42 43 43 39 38 37 35 31 31 31 29 28
37 36 35 39 46 49 50 50 51 51 49 49 52 54 51 50 48 46 41 40 40 41 45 46 43 42 43 44 39 35 35 34 32 31 31 29 28 26
35 35 31 35 39 44 48 49 50 51 51 49 49 53 53 49 48 46 45 40 40 40 41 42 38 39 39 39 36 35 34 34 32 32 32 30 29 27
32 28 26 28 35 40 45 46 49 50 50 52 50 51 51 51 49 47 45 45 41 38 39 39 39 40 37 35 34 33 32 31 31 31 33 32 30 28
33 28 23 27 29 38 41 44 47 48 48 51 51 49 50 51 53 50 49 46 41 39 40 39 38 37 38 35 33 32 29 29 29 30 33 33 32 29
34 30 25 28 35 37 38 42 45 46 45 46 46 45 49 50 54 53 52 52 49 50 40 39 38 34 37 35 33 32 29 29 28 29 31 34 32 28
36 31 24 26 32 33 35 38 41 40 41 43 44 46 48 47 49 51 50 51 52 48 47 39 37 35 36 34 32 34 31 30 28 28 29 32 32 31
35 32 26 24 25 35 35 33 36 36 38 37 39 43 46 46 45 48 46 49 46 46 49 42 40 37 34 34 34 36 35 34 31 29 30 30 31 30
32 27 29 19 25 21 28 32 32 33 35 37 38 41 44 45 44 46 46 43 44 44 48 44 45 38 36 34 38 37 37 35 33 32 33 32 29 29
28 31 25 18 5 12 21 28 27 26 31 36 37 39 42 43 41 44 43 45 48 44 51 44 46 43 43 44 41 41 40 38 34 32 31 30 30 30
24 31 22 10 5 8 15 28 19 22 27 36 33 39 39 40 43 44 46 46 48 49 49 47 44 42 43 43 43 46 47 43 38 35 36 35 32 32
22 28 27 16 3 5 7 15 31 32 27 26 33 34 38 36 38 42 44 44 44 44 44 43 39 44 43 39 40 40 43 43 43 41 39 37 36 36
20 20 24 24 7 4 2 8 19 35 34 31 22 30 32 38 39 41 42 41 42 42 42 46 46 40 43 37 36 39 43 44 45 42 39 40 37 38
20 17 21 20 22 6 6 3 4 18 26 29 33 32 33 36 39 42 42 39 38 42 43 46 51 54 42 40 40 41 40 40 41 42 44 44 42 38
19 18 18 16 16 19 14 4 5 5 13 32 39 33 31 41 41 41 39 42 42 43 42 43 37 34 39 44 54 45 44 42 41 41 41 40 38 36
20 20 16 16 17 12 14 17 10 5 8 11 23 38 37 42 43 44 41 43 45 49 49 47 46 47 49 53 54 50 45 49 48 50 38 35 36 37
17 16 15 14 14 11 11 13 12 13 12 5 10 16 16 23 29 34 42 47 50 49 45 48 51 48 50 47 45 46 48 52 51 52 55 48 41 44
20 19 19 20 19 17 15 14 13 13 10 8 13 14 11 12 20 29 34 37 37 36 39 46 46 47 44 44 44 46 48 49 49 48 52 49 49 49
24 25 25 25 24 24 23 20 18 16 14 14 14 13 12 12 16 17 15 22 27 32 30 32 32 36 39 43 49 50 47 46 46 48 46 43 44 48
Wind_Direction
266 261 256 253 248 245 242 238 238 239 240 242 241 243 243 245 243 239 235 233 232 233 233 236 239 243 245 248 254 259 262 265 265 267 269 269 272 276
265 259 256 252 251 247 244 237 228 238 236 240 243 241 240 243 244 241 236 233 234 234 236 237 241 246 246 244 249 254 259 262 263 268 270 270 272 275
278 261 256 254 249 248 244 242 238 240 233 234 238 240 240 238 243 242 238 232 233 236 236 237 239 242 244 244 247 253 259 260 263 264 267 269 271 273
280 270 257 252 251 247 244 241 239 238 232 230 235 238 238 238 239 239 238 233 232 234 236 236 237 241 245 250 252 255 258 260 260 260 261 264 266 270
288 274 261 253 248 247 245 241 238 237 235 230 231 235 238 238 238 239 235 236 235 238 239 240 241 243 249 252 253 252 253 255 254 254 255 257 262 266
282 283 265 258 247 243 241 240 237 235 235 232 232 233 236 238 237 237 235 237 235 238 238 240 243 244 248 250 246 244 247 248 247 249 250 254 258 260
294 285 266 256 248 241 239 238 237 235 234 236 234 232 234 236 237 238 236 234 233 233 237 237 238 238 241 244 246 245 245 246 247 250 250 252 254 254
289 289 261 258 248 240 239 236 236 234 232 233 234 234 231 236 235 234 234 230 233 232 235 236 236 236 238 239 243 246 247 249 252 252 250 251 251 250
307 297 251 243 249 240 239 240 236 235 235 234 232 232 229 232 234 234 234 230 231 236 236 235 235 233 234 233 239 244 244 251 254 254 252 252 252 248
315 319 283 243 249 242 237 236 236 236 235 235 232 232 230 231 235 236 238 232 229 234 232 236 236 230 232 233 236 240 247 252 253 253 252 251 251 248
311 320 301 251 247 244 238 238 237 233 236 237 230 229 227 229 231 234 237 234 231 235 236 233 236 230 233 234 233 242 248 254 255 261 256 248 249 252
312 313 310 271 250 245 247 237 235 234 233 234 234 234 230 232 234 234 237 234 235 233 228 227 233 235 235 239 241 241 247 253 255 262 263 253 248 248
310 316 330 296 256 250 230 228 228 232 236 237 234 231 229 232 233 234 234 233 229 226 227 226 232 232 239 239 247 247 249 253 256 262 264 250 251 250
310 324 334 301 274 268 224 219 216 226 236 232 233 232 232 232 235 234 233 230 228 229 226 224 231 238 242 245 243 249 251 253 256 259 260 257 256 253
311 318 345 330 326 267 241 233 216 206 226 221 230 229 231 231 230 231 231 230 229 230 228 232 237 240 243 245 249 251 252 251 256 260 263 260 257 253
316 320 344 3 245 298 238 231 223 221 227 234 231 231 226 226 228 229 231 233 232 231 230 236 238 243 245 242 251 254 250 251 256 260 265 260 258 258
319 331 334 349 351 179 46 237 197 198 206 220 217 214 216 217 221 224 226 231 233 230 233 234 234 235 236 241 246 250 249 251 256 257 260 258 256 257
315 318 328 338 354 2 187 197 123 176 208 208 218 230 208 221 225 222 224 226 227 226 230 233 234 233 228 243 245 246 248 254 254 256 255 255 258 258
318 312 310 330 342 349 11 188 208 186 191 215 220 220 208 216 224 220 223 221 219 226 228 229 232 230 241 241 239 247 240 245 250 254 248 251 250 254
308 308 307 309 324 337 337 351 12 219 198 198 202 218 222 212 209 213 208 216 220 227 233 223 238 234 241 236 237 242 245 246 239 239 238 239 232 236
298 307 316 321 329 332 327 332 336 351 4 331 223 232 211 205 199 200 219 224 230 226 228 234 236 238 234 237 245 243 235 234 235 240 244 236 241 245
291 295 304 310 314 315 316 321 324 323 316 324 337 342 326 269 225 213 211 212 213 218 222 226 224 231 238 233 228 229 238 244 244 245 243 242 244 246
282 286 292 298 301 303 304 302 300 300 300 300 297 291 287 294 309 314 275 244 237 232 232 235 237 238 239 239 242 242 239 243 248 248 247 247 246 239